Location: Walnut Point State Park
(39.6958°N, 88.0345°W)
Time: 22:35:19
(UTC-05:00)

Amateur Radio Satellites - All Passes

Search period start: 29 August 2015 22:05
Search period end: 30 August 2015 22:05
Location: Walnut Point State Park, 39.6958°N, 88.0345°W

Satellite Date Start Highest point End Downlink Frequencies (MHz)
Time Altitude Azimuth
CUTE 1.7 + AOD 2 29 Aug 22:06:46 22:08:02 11° 272° (W) 22:09:00 437.475
ESTCUBE 1 29 Aug 22:15:44 22:18:22 16° 66° (ENE) 22:21:11 437.505/2401.250
DX 1 29 Aug 22:23:36 22:27:38 40° 72° (ENE) 22:31:43 434.975-435.025
DELFI C3 29 Aug 22:26:40 22:30:27 37° 263° (W) 22:34:14 145.870
AISAT 29 Aug 22:36:11 22:40:11 35° 71° (ENE) 22:44:14 437.250
Oscar 11 29 Aug 22:36:25 22:39:48 21° 267° (W) 22:43:05 145.826/435.025
UKube-1 29 Aug 22:39:46 22:43:57 55° 74° (ENE) 22:48:11 .
HUMSAT D 29 Aug 22:41:30 22:45:48 74° 259° (WSW) 22:50:09 437.325/437.525
UNISAT 6 29 Aug 22:43:46 22:47:37 26° 94° (E) 22:51:26 437.425
CUBEBUG 1 29 Aug 22:44:38 22:48:07 25° 69° (ENE) 22:51:42 437.445
Cosmos 2504 29 Aug 22:48:18 22:54:53 30° 84° (E) 23:02:01 435.465 / 435.565
VELOX 1 29 Aug 23:04:41 23:09:02 71° 75° (ENE) 23:13:27 145.980
QB50P2 29 Aug 23:04:51 23:07:23 16° 91° (E) 23:10:04 145.880/145.840
CUBEBUG 2 29 Aug 23:06:28 23:07:50 11° 274° (W) 23:08:53 437.445
NANOSAT C BR1 29 Aug 23:07:42 23:10:16 16° 91° (E) 23:13:01 145.865
AUBIESAT-1 29 Aug 23:09:02 23:12:24 27° 99° (E) 23:15:35 437.475
RS-15 29 Aug 23:10:20 23:19:20 25° 24° (NNE) 23:28:52 29.354- 29.394
M-CUBED/EXP-1 PRIME 29 Aug 23:11:50 23:15:33 35° 101° (E) 23:19:00 437.505
TIGRISAT 29 Aug 23:12:51 23:17:22 53° 100° (E) 23:21:45 435.000
ZACube-1 29 Aug 23:15:25 23:17:55 14° 271° (W) 23:20:11 437.345
UWE-3 29 Aug 23:19:08 23:19:45 10° 274° (W) 23:20:02 435.000/436.395/437.385
QB50P1 29 Aug 23:19:46 23:23:06 22° 94° (E) 23:26:31 145.935-145.965
50 SAT 29 Aug 23:21:38 23:25:32 56° 260° (W) 23:29:27 437.505
FUNcube-1 29 Aug 23:22:33 23:24:29 12° 272° (W) 23:26:10 145.935
ANTELSAT 29 Aug 23:28:53 23:33:30 84° 100° (E) 23:37:59 437.575/2403.000
ESTCUBE 1 29 Aug 23:50:32 23:54:53 49° 261° (W) 23:59:15 437.505/2401.250
DX 1 30 Aug 00:01:12 00:04:05 17° 268° (W) 00:06:50 434.975-435.025
YUBILEINY 30 Aug 00:01:28 00:06:41 16° 302° (WNW) 00:11:22 435.215
TISAT 1 30 Aug 00:02:08 00:05:47 30° 71° (ENE) 00:09:31 437.305
AISAT 30 Aug 00:13:36 00:16:52 20° 267° (W) 00:20:03 437.250
UKube-1 30 Aug 00:18:38 00:20:29 12° 270° (W) 00:22:08 .
POLYITAN 1 30 Aug 00:19:20 00:23:40 74° 284° (WNW) 00:27:56 437.675
BEESAT 3 30 Aug 00:19:36 00:23:30 45° 54° (NE) 00:27:21 437.485
UNISAT 6 30 Aug 00:20:24 00:24:21 28° 291° (WNW) 00:28:10 437.425
CUBEBUG 1 30 Aug 00:20:42 00:24:24 27° 265° (W) 00:28:04 437.445
POPSAT HIP 1 30 Aug 00:22:52 00:27:11 69° 284° (WNW) 00:31:26 437.405
SPROUT 30 Aug 00:24:12 00:28:29 84° 260° (W) 00:32:49 437.525
DUCHIFAT 1 30 Aug 00:25:25 00:29:42 67° 285° (WNW) 00:33:56 145.980
SO-50 30 Aug 00:26:38 00:27:57 11° 108° (ESE) 00:29:35 436.795
BEESAT 2 30 Aug 00:28:16 00:32:09 42° 53° (NE) 00:35:59 435.950
CUSAT 1 30 Aug 00:28:23 00:31:53 61° 96° (E) 00:36:35 437.405
Cosmos 2504 30 Aug 00:38:46 00:46:39 56° 283° (WNW) 00:54:59 435.465 / 435.565
QB50P2 30 Aug 00:39:25 00:43:31 42° 287° (WNW) 00:47:34 145.880/145.840
DANDE 30 Aug 00:40:30 00:43:32 42° 93° (E) 00:47:29 436.750
NANOSAT C BR1 30 Aug 00:42:16 00:46:20 41° 288° (WNW) 00:50:21 145.865
BUGSAT 1 30 Aug 00:43:02 00:47:17 68° 284° (WNW) 00:51:31 437.445
AUBIESAT-1 30 Aug 00:43:54 00:47:00 21° 298° (WNW) 00:49:49 437.475
M-CUBED/EXP-1 PRIME 30 Aug 00:47:18 00:50:03 17° 299° (WNW) 00:52:32 437.505
AIST 2 30 Aug 00:49:43 00:52:31 17° 44° (NE) 00:55:24 435.215
ITUPSAT 1 30 Aug 00:50:42 00:53:59 19° 66° (ENE) 00:57:25 437.325
TIGRISAT 30 Aug 00:50:57 00:53:41 15° 295° (WNW) 00:56:12 435.000
QB50P1 30 Aug 00:55:13 00:59:00 30° 289° (WNW) 01:02:42 145.935-145.965
Oscar 19 30 Aug 01:07:35 01:10:12 14° 89° (E) 01:13:05 437.125/150
ANTELSAT 30 Aug 01:09:13 01:09:38 10° 298° (WNW) 01:09:45 437.575/2403.000
RS-15 30 Aug 01:22:59 01:34:45 66° 52° (NE) 01:46:57 29.354- 29.394
BEESAT 30 Aug 01:24:01 01:28:29 41° 71° (ENE) 01:32:59 436.000
PCSat 30 Aug 01:37:46 01:42:06 26° 109° (ESE) 01:46:35 145.827
TISAT 1 30 Aug 01:38:21 01:41:36 21° 267° (W) 01:44:47 437.305
SWISSCUBE 30 Aug 01:49:17 01:54:04 83° 74° (ENE) 01:58:51 437.505
BEESAT 3 30 Aug 01:58:45 02:01:04 15° 249° (WSW) 02:03:13 437.485
ITAMSAT 1 30 Aug 02:02:46 02:03:58 11° 87° (E) 02:05:33 435.822/435.867
SO-50 30 Aug 02:03:05 02:07:52 80° 303° (WNW) 02:12:49 436.795
BEESAT 2 30 Aug 02:07:18 02:09:53 16° 249° (WSW) 02:12:17 435.950
ITUPSAT 1 30 Aug 02:27:00 02:31:35 45° 261° (W) 02:36:10 437.325
AIST 2 30 Aug 02:27:21 02:31:24 50° 243° (WSW) 02:35:23 435.215
Oscar 19 30 Aug 02:44:56 02:50:07 65° 286° (WNW) 02:55:15 437.125/150
GONETS M04 30 Aug 02:46:42 02:54:53 50° 90° (E) 03:03:13
STARS 30 Aug 02:56:58 03:00:59 36° 71° (ENE) 03:05:04 437.465
JAS-2 30 Aug 02:59:05 03:04:55 28° 90° (E) 03:10:20 435.910
BEESAT 30 Aug 03:03:01 03:06:32 20° 268° (W) 03:09:54 436.000
Gurwin Techsat 1B 30 Aug 03:08:38 03:13:56 65° 101° (E) 03:19:12 435.225
MOZHAYETS 4 30 Aug 03:09:40 03:11:25 12° 64° (ENE) 03:13:25
KKS-1 30 Aug 03:09:44 03:14:10 87° 77° (ENE) 03:18:40 437.445
Cosmos 2499 30 Aug 03:13:16 03:18:14 18° 79° (E) 03:23:52 435.465 / 435.565
PCSat 30 Aug 03:20:11 03:25:19 42° 305° (NW) 03:30:29 145.827
RS-15 30 Aug 03:36:09 03:46:46 38° 252° (WSW) 03:57:18 29.354- 29.394
ITAMSAT 1 30 Aug 03:39:01 03:44:13 81° 285° (WNW) 03:49:24 435.822/435.867
SO-50 30 Aug 03:46:42 03:49:17 14° 323° (NW) 03:51:44 436.795
O/OREOS (USA 219) 30 Aug 03:59:20 03:59:45 10° 49° (NE) 04:00:26 437.305
HORYU 2 30 Aug 04:13:23 04:17:11 27° 95° (E) 04:21:01 437.375
AO-7 30 Aug 04:20:33 04:28:21 44° 99° (E) 04:36:11 29.400- 29.500
VERMONT LUNAR 30 Aug 04:24:57 04:27:35 28° 155° (SSE) 04:30:13 437.305
STARS 30 Aug 04:34:19 04:37:34 19° 267° (W) 04:40:42 437.465
JAS-2 30 Aug 04:43:31 04:50:21 49° 291° (WNW) 04:56:22 435.910
MOZHAYETS 4 30 Aug 04:43:32 04:48:08 69° 259° (WSW) 04:52:45
GONETS M04 30 Aug 04:44:17 04:52:04 34° 290° (WNW) 04:59:45
Gurwin Techsat 1B 30 Aug 04:50:06 04:53:26 17° 297° (WNW) 04:56:33 435.225
CUBESAT XI-V 30 Aug 04:57:03 04:59:23 14° 65° (ENE) 05:01:56 437.345
Cosmos 2499 30 Aug 05:01:55 05:10:18 88° 277° (W) 05:19:13 435.465 / 435.565
ITAMSAT 1 30 Aug 05:22:14 05:23:00 10° 300° (WNW) 05:23:25 435.822/435.867
O/OREOS (USA 219) 30 Aug 05:35:23 05:40:01 87° 68° (ENE) 05:44:36 437.305
STRAND 1 30 Aug 05:36:25 05:38:02 12° 61° (ENE) 05:39:56 437.568
HORYU 2 30 Aug 05:50:00 05:53:45 26° 291° (WNW) 05:57:25 437.375
CUTE-I 30 Aug 05:50:35 05:52:07 11° 87° (E) 05:54:01 437.470
VERMONT LUNAR 30 Aug 06:00:52 06:03:51 87° 345° (NNW) 06:06:51 437.305
PHONESAT 2.4 30 Aug 06:06:20 06:08:54 20° 150° (SSE) 06:11:30 2401.200-2431.200
AO-7 30 Aug 06:13:29 06:21:07 42° 297° (WNW) 06:28:38 29.400- 29.500
PRISM 30 Aug 06:15:22 06:17:45 16° 67° (ENE) 06:20:16 437.425
CUBESAT XI-V 30 Aug 06:31:53 06:36:24 57° 260° (W) 06:40:57 437.345
Cubesat XI-IV 30 Aug 06:42:15 06:47:11 38° 97° (E) 06:52:09 437.490
Cosmos 2499 30 Aug 06:59:13 07:05:01 19° 300° (WNW) 07:10:32 435.465 / 435.565
STRAND 1 30 Aug 07:11:30 07:16:36 86° 260° (W) 07:21:44 437.568
BRITE-PL 30 Aug 07:15:07 07:18:28 17° 89° (E) 07:22:07 437.365/2234.400
CUTE-I 30 Aug 07:27:36 07:32:57 81° 286° (WNW) 07:38:17 437.470
VERMONT LUNAR 30 Aug 07:37:22 07:40:21 81° 7° (N) 07:43:20 437.305
PHONESAT 2.4 30 Aug 07:43:05 07:46:28 72° 165° (SSE) 07:49:52 2401.200-2431.200
PRISM 30 Aug 07:48:59 07:52:52 41° 261° (W) 07:56:46 437.425
GOMX 1 30 Aug 07:53:24 07:57:34 23° 91° (E) 08:01:55 467.674
AIST 1 30 Aug 07:53:50 07:57:22 26° 90° (E) 08:00:58
YUBILEINY 30 Aug 08:10:42 08:19:12 50° 75° (ENE) 08:27:42 435.215
CUTE 1.7 + AOD 2 30 Aug 08:16:01 08:16:57 11° 88° (E) 08:18:10 437.475
DOVE 4 30 Aug 08:16:26 08:20:30 23° 91° (E) 08:24:40 437.250
Cubesat XI-IV 30 Aug 08:22:44 08:27:09 27° 293° (WNW) 08:31:28 437.490
CANX-2 30 Aug 08:28:07 08:30:55 18° 92° (E) 08:33:50 2200.000
BRITE-PL 30 Aug 08:51:58 08:57:24 65° 285° (WNW) 09:03:01 437.365/2234.400
SEEDS 30 Aug 08:52:34 08:55:54 23° 94° (E) 08:59:18 437.485
Cosmos 2491 30 Aug 08:56:22 09:04:34 50° 90° (E) 09:12:52 435.465 / 435.565
SO-50 30 Aug 08:56:46 08:58:57 13° 36° (NE) 09:01:17 436.795
CUTE-I 30 Aug 09:11:02 09:12:17 11° 300° (WNW) 09:13:12 437.470
VERMONT LUNAR 30 Aug 09:13:56 09:16:41 34° 203° (SSW) 09:19:25 437.305
CINEMA 3 30 Aug 09:15:19 09:19:55 36° 95° (E) 09:24:26 145.822/145.860
COMPASS 1 30 Aug 09:17:17 09:21:04 34° 97° (E) 09:24:52 437.405
CUBEBUG 2 30 Aug 09:19:16 09:22:11 17° 90° (E) 09:25:15 437.445
PHONESAT 2.4 30 Aug 09:20:59 09:24:23 75° 1° (N) 09:27:48 2401.200-2431.200
CUSAT 1 30 Aug 09:24:05 09:26:04 11° 58° (ENE) 09:28:42 437.405
HO-68 30 Aug 09:26:21 09:33:32 70° 103° (ESE) 09:40:43 435.675
ZACube-1 30 Aug 09:28:49 09:30:01 11° 87° (E) 09:31:31 437.345
AAUSAT CUBESAT 2 30 Aug 09:29:03 09:32:57 39° 97° (E) 09:36:50 437.432
UWE-3 30 Aug 09:30:11 09:33:01 17° 90° (E) 09:35:59 435.000/436.395/437.385
GOMX 1 30 Aug 09:30:42 09:35:53 47° 288° (WNW) 09:41:07 467.674
AIST 1 30 Aug 09:31:36 09:35:01 22° 287° (WNW) 09:38:20
FUNcube-1 30 Aug 09:34:29 09:36:22 13° 88° (E) 09:38:28 145.935
UNISAT 6 30 Aug 09:41:57 09:45:34 23° 68° (ENE) 09:49:20 437.425
CUTE 1.7 + AOD 2 30 Aug 09:49:09 09:53:20 58° 285° (WNW) 09:57:27 437.475
ISS 30 Aug 09:50:09 09:53:24 85° 322° (NW) 09:56:39 145.825
DOVE 4 30 Aug 09:53:22 09:58:26 45° 288° (WNW) 10:03:25 437.250
AUBIESAT-1 30 Aug 09:54:17 09:58:39 38° 67° (ENE) 10:03:00 437.475
M-CUBED/EXP-1 PRIME 30 Aug 09:57:32 10:02:08 48° 68° (ENE) 10:06:44 437.505
QB50P2 30 Aug 09:58:28 09:59:47 12° 64° (ENE) 10:01:21 145.880/145.840
NANOSAT C BR1 30 Aug 10:00:54 10:02:15 12° 65° (ENE) 10:03:49 145.865
CANX-2 30 Aug 10:03:06 10:07:00 36° 288° (WNW) 10:10:51 2200.000
DELFI C3 30 Aug 10:06:22 10:09:49 28° 95° (E) 10:13:17 145.870
YUBILEINY 30 Aug 10:08:01 10:15:48 35° 274° (W) 10:23:20 435.215
TIGRISAT 30 Aug 10:10:23 10:14:46 43° 72° (ENE) 10:19:15 435.000
QB50P1 30 Aug 10:12:30 10:15:02 16° 67° (ENE) 10:17:45 145.935-145.965
Oscar 11 30 Aug 10:23:15 10:27:35 73° 101° (E) 10:31:52 145.826/435.025
PCSat 30 Aug 10:26:02 10:30:00 21° 46° (NE) 10:34:05 145.827
Cosmos 2504 30 Aug 10:26:21 10:34:32 49° 75° (ENE) 10:42:20 435.465 / 435.565
ANTELSAT 30 Aug 10:26:26 10:31:03 67° 75° (ENE) 10:35:46 437.575/2403.000
HUMSAT D 30 Aug 10:27:17 10:30:15 19° 92° (E) 10:33:17 437.325/437.525
SEEDS 30 Aug 10:28:07 10:31:41 27° 290° (WNW) 10:35:10 437.485
SO-50 30 Aug 10:35:29 10:40:27 73° 57° (ENE) 10:45:16 436.795
CINEMA 3 30 Aug 10:52:48 10:56:55 25° 292° (WNW) 11:00:52 145.822/145.860
COMPASS 1 30 Aug 10:53:34 10:56:30 18° 292° (WNW) 10:59:19 437.405
Cosmos 2491 30 Aug 10:53:54 11:01:44 35° 290° (WNW) 11:09:27 435.465 / 435.565
CUBEBUG 2 30 Aug 10:54:40 10:59:12 46° 287° (WNW) 11:03:34 437.445
VELOX 1 30 Aug 10:57:22 10:59:43 14° 90° (E) 11:02:16 145.980
50 SAT 30 Aug 10:58:32 11:00:54 16° 92° (E) 11:03:24 437.505
PHONESAT 2.4 30 Aug 10:58:55 11:02:16 56° 199° (SSW) 11:05:36 2401.200-2431.200
ZACube-1 30 Aug 11:02:26 11:06:56 64° 285° (WNW) 11:11:18 437.345
CUSAT 1 30 Aug 11:02:39 11:10:12 58° 76° (ENE) 11:18:20 437.405
UWE-3 30 Aug 11:05:25 11:09:50 45° 288° (WNW) 11:14:07 435.000/436.395/437.385
AAUSAT CUBESAT 2 30 Aug 11:05:37 11:08:15 16° 293° (WNW) 11:10:45 437.432
FUNcube-1 30 Aug 11:08:42 11:13:08 56° 286° (WNW) 11:17:26 145.935
POLYITAN 1 30 Aug 11:11:05 11:15:19 74° 76° (ENE) 11:19:38 437.675
POPSAT HIP 1 30 Aug 11:14:24 11:18:39 79° 75° (ENE) 11:22:56 437.405
HO-68 30 Aug 11:15:11 11:20:43 24° 300° (WNW) 11:26:00 435.675
DUCHIFAT 1 30 Aug 11:16:29 11:20:42 80° 76° (ENE) 11:24:58 145.980
DANDE 30 Aug 11:17:28 11:24:42 53° 76° (ENE) 11:32:58 436.750
UNISAT 6 30 Aug 11:17:52 11:22:09 35° 263° (W) 11:26:29 437.425
ISS 30 Aug 11:27:59 11:30:12 17° 341° (NNW) 11:32:23 145.825
AUBIESAT-1 30 Aug 11:29:35 11:33:24 23° 262° (W) 11:37:07 437.475
QB50P2 30 Aug 11:30:58 11:35:11 64° 259° (W) 11:39:27 145.880/145.840
BUGSAT 1 30 Aug 11:31:58 11:36:00 74° 76° (ENE) 11:40:06 437.445
NANOSAT C BR1 30 Aug 11:33:24 11:37:35 63° 259° (W) 11:41:49 145.865
M-CUBED/EXP-1 PRIME 30 Aug 11:33:40 11:37:06 19° 264° (W) 11:40:23 437.505
DELFI C3 30 Aug 11:41:42 11:44:44 21° 291° (WNW) 11:47:39 145.870
ESTCUBE 1 30 Aug 11:43:58 11:48:05 35° 97° (E) 11:52:14 437.505/2401.250
QB50P1 30 Aug 11:46:32 11:50:34 43° 262° (W) 11:54:39 145.935-145.965
DX 1 30 Aug 11:48:21 11:52:46 87° 102° (ESE) 11:57:09 434.975-435.025
TIGRISAT 30 Aug 11:48:25 11:51:45 18° 269° (W) 11:54:56 435.000
HUMSAT D 30 Aug 12:02:14 12:06:06 34° 289° (WNW) 12:09:52 437.325/437.525
Oscar 11 30 Aug 12:02:29 12:03:13 10° 296° (WNW) 12:03:42 145.826/435.025
AISAT 30 Aug 12:03:23 12:07:54 82° 102° (ESE) 12:12:23 437.250
UKube-1 30 Aug 12:03:46 12:08:06 71° 286° (WNW) 12:12:25 .
ANTELSAT 30 Aug 12:06:30 12:08:23 12° 272° (W) 12:09:58 437.575/2403.000
PCSat 30 Aug 12:08:32 12:13:56 63° 245° (WSW) 12:19:16 145.827
CUBEBUG 1 30 Aug 12:09:22 12:13:44 56° 100° (E) 12:18:05 437.445
SPROUT 30 Aug 12:12:34 12:15:30 18° 92° (E) 12:18:34 437.525
SO-50 30 Aug 12:18:08 12:20:25 13° 252° (WSW) 12:22:26 436.795
Cosmos 2504 30 Aug 12:19:01 12:26:29 34° 275° (W) 12:33:25 435.465 / 435.565
Oscar 19 30 Aug 12:23:23 12:27:02 21° 65° (ENE) 12:30:52 437.125/150
50 SAT 30 Aug 12:32:04 12:35:35 33° 288° (WNW) 12:39:01 437.505
VELOX 1 30 Aug 12:32:17 12:36:36 50° 287° (WNW) 12:40:55 145.980
PHONESAT 2.4 30 Aug 12:37:47 12:39:44 14° 213° (SSW) 12:41:37 2401.200-2431.200
CUSAT 1 30 Aug 12:45:48 12:52:30 31° 271° (W) 12:59:20 437.405
Gurwin Techsat 1B 30 Aug 12:52:57 12:54:52 12° 61° (ENE) 12:57:05 435.225
GONETS M04 30 Aug 12:58:22 13:04:56 24° 65° (ENE) 13:11:52
DANDE 30 Aug 13:01:00 13:07:42 34° 269° (W) 13:14:57 436.750
ISS 30 Aug 13:07:12 13:07:38 10° 1° (N) 13:08:04 145.825
JAS-2 30 Aug 13:11:19 13:15:20 16° 56° (NE) 13:19:47 435.910
ITAMSAT 1 30 Aug 13:19:02 13:22:18 18° 64° (ENE) 13:25:45 435.822/435.867
ESTCUBE 1 30 Aug 13:21:20 13:24:45 21° 292° (WNW) 13:28:04 437.505/2401.250
TISAT 1 30 Aug 13:22:14 13:26:29 62° 101° (E) 13:30:43 437.305
BEESAT 30 Aug 13:27:37 13:28:39 11° 88° (E) 13:30:02 436.000
AO-7 30 Aug 13:32:27 13:35:11 12° 47° (NE) 13:38:27 29.400- 29.500
CUBEBUG 1 30 Aug 13:47:19 13:49:39 14° 295° (WNW) 13:51:48 437.445
SPROUT 30 Aug 13:47:43 13:51:45 37° 288° (WNW) 13:55:44 437.525
SWISSCUBE 30 Aug 13:51:08 13:54:47 22° 93° (E) 13:58:33 437.505
Oscar 19 30 Aug 14:01:05 14:06:04 49° 261° (W) 14:11:06 437.125/150
ITUPSAT 1 30 Aug 14:28:10 14:32:47 48° 99° (E) 14:37:23 437.325
Gurwin Techsat 1B 30 Aug 14:28:52 14:34:11 88° 256° (WSW) 14:39:33 435.225
ISS 30 Aug 14:42:45 14:45:03 18° 20° (NNE) 14:47:23 145.825
JAS-2 30 Aug 14:51:36 14:59:09 73° 74° (ENE) 15:07:03 435.910
GONETS M04 30 Aug 14:54:01 15:02:48 74° 266° (W) 15:11:33
Cosmos 2499 30 Aug 14:55:11 15:02:48 34° 69° (ENE) 15:10:10 435.465 / 435.565
ITAMSAT 1 30 Aug 14:56:18 15:01:24 58° 260° (W) 15:06:31 435.822/435.867
TISAT 1 30 Aug 15:00:02 15:01:46 12° 295° (WNW) 15:03:17 437.305
BEESAT 30 Aug 15:02:21 15:07:07 72° 285° (WNW) 15:11:51 436.000
KKS-1 30 Aug 15:02:39 15:05:39 18° 92° (E) 15:08:49 437.445
HORYU 2 30 Aug 15:11:00 15:14:34 24° 68° (ENE) 15:18:15 437.375
AO-7 30 Aug 15:18:20 15:26:24 57° 66° (ENE) 15:34:31 29.400- 29.500
SWISSCUBE 30 Aug 15:28:24 15:32:46 36° 290° (WNW) 15:37:04 437.505
RS-15 30 Aug 15:46:16 15:56:06 43° 109° (ESE) 16:06:26 29.354- 29.394
BEESAT 3 30 Aug 15:48:20 15:52:23 70° 303° (WNW) 15:56:28 437.485
BEESAT 2 30 Aug 15:58:04 16:02:10 74° 302° (WNW) 16:06:17 435.950
ITUPSAT 1 30 Aug 16:07:05 16:10:19 18° 295° (WNW) 16:13:24 437.325
ISS 30 Aug 16:18:32 16:21:48 83° 219° (SW) 16:25:02 145.825
STARS 30 Aug 16:23:12 16:27:41 82° 102° (ESE) 16:32:07 437.465
AIST 2 30 Aug 16:24:07 16:28:04 40° 116° (ESE) 16:32:04 435.215
KKS-1 30 Aug 16:38:16 16:42:30 40° 288° (WNW) 16:46:41 437.445
JAS-2 30 Aug 16:39:00 16:44:56 23° 272° (W) 16:50:43 435.910
MOZHAYETS 4 30 Aug 16:39:50 16:43:47 29° 95° (E) 16:47:46
HORYU 2 30 Aug 16:47:05 16:51:05 31° 264° (W) 16:55:04 437.375
Cosmos 2499 30 Aug 16:48:01 16:56:21 51° 270° (W) 17:04:03 435.465 / 435.565
GONETS M04 30 Aug 16:54:44 16:58:18 12° 283° (WNW) 17:01:09
CUTE-I 30 Aug 17:10:45 17:14:22 20° 64° (ENE) 17:18:11 437.470
AO-7 30 Aug 17:12:18 17:19:36 32° 265° (W) 17:26:44 29.400- 29.500
SRMSAT 30 Aug 17:34:47 17:35:06 10° 181° (S) 17:35:25 437.500
RS-15 30 Aug 17:57:31 18:08:16 56° 312° (NW) 18:19:25 29.354- 29.394
Cubesat XI-IV 30 Aug 18:03:24 18:08:37 59° 73° (ENE) 18:13:51 437.490
AIST 2 30 Aug 18:03:27 18:06:48 22° 313° (NW) 18:10:05 435.215
O/OREOS (USA 219) 30 Aug 18:11:16 18:12:13 11° 99° (E) 18:13:28 437.305
MOZHAYETS 4 30 Aug 18:17:07 18:20:56 26° 291° (WNW) 18:24:38
BRITE-PL 30 Aug 18:26:52 18:28:52 13° 63° (ENE) 18:31:09 437.365/2234.400
CUBESAT XI-V 30 Aug 18:29:21 18:33:37 36° 97° (E) 18:37:57 437.345
CUTE-I 30 Aug 18:48:53 18:54:05 54° 260° (W) 18:59:18 437.470
GOMX 1 30 Aug 19:01:42 19:04:46 19° 65° (ENE) 19:08:06 467.674
Cosmos 2491 30 Aug 19:08:12 19:14:39 23° 64° (ENE) 19:21:28 435.465 / 435.565
CANX-2 30 Aug 19:21:29 19:23:17 13° 66° (ENE) 19:25:17 2200.000
DOVE 4 30 Aug 19:21:54 19:25:02 19° 65° (ENE) 19:28:25 437.250
STRAND 1 30 Aug 19:23:07 19:27:43 34° 97° (E) 19:32:21 437.568
PRISM 30 Aug 19:32:00 19:35:27 26° 96° (E) 19:38:57 437.425
AIST 1 30 Aug 19:38:14 19:42:34 78° 82° (E) 19:46:55
SEEDS 30 Aug 19:44:34 19:47:08 16° 67° (ENE) 19:49:50 437.485
Cubesat XI-IV 30 Aug 19:45:44 19:49:11 17° 270° (W) 19:52:23 437.490
O/OREOS (USA 219) 30 Aug 19:46:37 19:51:07 67° 293° (WNW) 19:55:40 437.305
HO-68 30 Aug 19:53:51 20:00:35 48° 67° (ENE) 20:07:26 435.675
BRITE-PL 30 Aug 20:02:38 20:06:52 58° 260° (W) 20:11:26 437.365/2234.400
CUBESAT XI-V 30 Aug 20:07:18 20:10:52 22° 292° (WNW) 20:14:21 437.345
COMPASS 1 30 Aug 20:07:58 20:11:13 22° 69° (ENE) 20:14:33 437.405
RS-15 30 Aug 20:15:49 20:24:09 22° 342° (NNW) 20:32:33 29.354- 29.394
CINEMA 3 30 Aug 20:16:13 20:20:12 29° 69° (ENE) 20:24:25 145.822/145.860
CUBEBUG 2 30 Aug 20:17:23 20:19:42 14° 64° (ENE) 20:22:15 437.445
AAUSAT CUBESAT 2 30 Aug 20:19:11 20:22:35 25° 70° (ENE) 20:26:04 437.432
UWE-3 30 Aug 20:27:16 20:29:27 14° 64° (ENE) 20:31:54 435.000/436.395/437.385
FUNcube-1 30 Aug 20:30:57 20:31:40 10° 63° (ENE) 20:32:40 145.935
GOMX 1 30 Aug 20:38:20 20:42:33 42° 263° (W) 20:47:04 467.674
CUTE 1.7 + AOD 2 30 Aug 20:40:38 20:44:56 87° 78° (ENE) 20:49:15 437.475
DELFI C3 30 Aug 20:53:24 20:55:56 17° 68° (ENE) 20:58:37 145.870
CANX-2 30 Aug 20:54:32 20:58:46 57° 260° (W) 21:03:00 2200.000
DOVE 4 30 Aug 20:58:04 21:02:25 45° 263° (W) 21:07:03 437.250
STRAND 1 30 Aug 21:02:31 21:06:50 28° 292° (WNW) 21:11:04 437.568
Cosmos 2491 30 Aug 21:03:49 21:12:33 74° 266° (W) 21:21:16 435.465 / 435.565
PRISM 30 Aug 21:07:28 21:10:48 23° 291° (WNW) 21:14:03 437.425
YUBILEINY 30 Aug 21:10:08 21:18:38 59° 91° (E) 21:27:16 435.215
Oscar 11 30 Aug 21:16:59 21:21:11 50° 74° (ENE) 21:25:25 145.826/435.025
SEEDS 30 Aug 21:18:33 21:22:37 42° 262° (W) 21:26:40 437.485
HUMSAT D 30 Aug 21:19:11 21:21:13 14° 66° (ENE) 21:23:27 437.325/437.525
HO-68 30 Aug 21:42:14 21:48:33 32° 265° (W) 21:54:46 435.675
COMPASS 1 30 Aug 21:43:02 21:46:45 29° 264° (W) 21:50:24 437.405
CUBEBUG 2 30 Aug 21:51:18 21:55:52 62° 260° (W) 22:00:34 437.445
CINEMA 3 30 Aug 21:53:20 21:57:22 28° 266° (W) 22:01:29 145.822/145.860
AAUSAT CUBESAT 2 30 Aug 21:54:34 21:58:07 25° 266° (W) 22:01:36 437.432
VELOX 1 30 Aug 21:55:12 21:56:58 13° 64° (ENE) 21:58:57 145.980
